Location: Unspecified
(0.0000°N, 0.0000°E)
Time: 12:56:20
(UTC+00:00)

Tiangong 1 - Pass Details

Date: 21 October 2017
Orbit: 274 x 300 km, 42.8° (Epoch: 18 December)

Event Time Altitude Azimuth Distance (km) Brightness Sun altitude
Rises 19:11:36 0° 317° (NW) 2,023 5.2 -21.3°
Reaches altitude 10° 19:13:36 10° 318° (NW) 1,185 3.9 -21.8°
Enters shadow 19:13:57 13° 319° (NW) 1,034 3.6 -21.9°
